KINEIS-1D

Last updated on Mon Dec 15 2025 00:02:49 GMT+0000 (Coordinated Universal Time)

1 60082U 24114D 25348.32550928 .00001099 00000+0 16734-3 0 9996 2 60082 98.0014 5.3965 0002701 79.8169 280.3345 14.75933811 79854
UTC large
Height (km)
Speed (km/s)
/
Latitude / Longitude
Inclination (degrees)
Orbital Period (minutes)
Azimuth
Elevation
Range (km)
Doppler Factor

Next 0 passes for location: London (51.5072 / 0.1276)

Sorry there are no passes over London.